Home > Weather > Bimbo > Past weeks

Flag for Central African Republic Past Weather in Bimbo, Central African Republic — Yesterday and Last 2 Weeks

Now
72 °F

Partly sunny.


Feels Like: 65 °F
Forecast: 71 / 91 °F
Wind: 2 mph from North

Location: Bangui Airport

Current Time: Jul 30, 2016 at 10:20:40 AM

Latest Report: Jul 30, 2016 at 9:00 AM


Visibility: N/A

Pressure: 29.95 "Hg

Humidity: 100%

Dew Point: 72 °F

Location of BimboLocation

Past Weather in Bimbo — Graph

°F

Bimbo Temperature Yesterday

Maximum temperature yesterday: 79 °F (at 1:00 PM)
Minimum temperature yesterday: 70 °F (at 2:00 AM)
Average temperature yesterday: 74 °F

High & Low Weather Summary for the Past Weeks

 TemperatureHumidityPressure
High91 °F (Jul 22, 2:00 PM)100% (Jul 15, 9:00 PM)30.01 "Hg (Jul 15, 9:00 PM)
Low70 °F (Jul 24, 2:00 AM)52% (Jul 28, 2:00 PM)29.74 "Hg (Jul 25, 3:00 PM)
Average77 °F88%29.90 "Hg
* Reported Jul 15 9:00 AM — Jul 30 9:00 AM, Bimbo, Weather by CustomWeather, © 2016

Note: Actual official high and low records may vary slightly from our data, if they occured in-between our weather recording intervals... More about our weather records

Advertising

Bimbo Weather History for the Previous 24 Hours

Scroll right to see more
 ConditionsComfort  
Time TempWeatherWind HumidityBarometerVisibility
9:00 AM
Sat, Jul 30
73 °FPartly sunny.2 mph94%29.95 "HgN/A
8:00 AM73 °FScattered clouds.7 mph94%29.95 "HgN/A
7:00 AM70 °FFog.5 mph100%29.92 "Hg2 mi
6:00 AM75 °FFog.2 mph100%29.89 "Hg0 mi
5:00 AM70 °FPassing clouds.No wind100%29.89 "Hg4 mi
4:00 AM72 °FPassing clouds.2 mph100%29.89 "Hg4 mi
3:00 AM72 °FPassing clouds.3 mph94%29.89 "Hg5 mi
2:00 AM72 °FClear.3 mph100%29.89 "Hg4 mi
1:00 AM72 °FClear.No wind100%29.89 "Hg4 mi
12:00 AM72 °FClear.2 mph100%29.92 "Hg4 mi
11:00 PM
Fri, Jul 29
73 °FPassing clouds.No wind94%29.95 "Hg4 mi
10:00 PM73 °FPassing clouds.2 mph94%29.92 "Hg4 mi
9:00 PM73 °FPassing clouds.2 mph94%29.92 "Hg4 mi
8:00 PM73 °FPassing clouds.2 mph100%29.89 "Hg5 mi
7:00 PM73 °FPassing clouds.No wind94%29.86 "Hg5 mi
6:00 PM77 °FPassing clouds.No wind83%29.86 "HgN/A
5:00 PM77 °FScattered clouds.5 mph83%29.86 "HgN/A
4:00 PM77 °FPassing clouds.6 mph83%29.83 "HgN/A
3:00 PM79 °FScattered clouds.7 mph74%29.86 "HgN/A
2:00 PM79 °FPartly sunny.3 mph74%29.89 "HgN/A
1:00 PM79 °FPartly sunny.3 mph74%29.92 "HgN/A
12:00 PM77 °FPartly sunny.2 mph79%29.95 "HgN/A
11:00 AM75 °FLight rain. Partly sunny.3 mph89%29.95 "HgN/A
10:00 AM73 °FLight rain. Scattered clouds.5 mph89%29.95 "HgN/A
Weather by CustomWeather, © 2016

See weather overviewHow to use our weather pages